{"data":{"norad_id":39077,"epoch":"2026-09-19T07:11:00.205152Z","epoch_age_seconds":121849,"freshness":"FRESH","line1":"1 39077U 13005F   26262.29930793 -.00000103  00000+0  35649-5 0  9991","line2":"2 39077  52.0112 354.7499 0000926 125.2341 234.8613 12.62264457627758","mean_motion":12.62264457,"eccentricity":9.26e-5,"inclination_deg":52.0112,"raan_deg":354.7499,"arg_perigee_deg":125.2341,"mean_anomaly_deg":234.8613,"bstar":3.5649e-6,"rev_number":62775,"period_min":114.08068982806,"perigee_km":1412.890216516,"apogee_km":1414.3332483812,"semimajor_km":7791.7487324486,"source":"CELESTRAK","updated_at":"2026-09-20T09:00:45.041837Z"}}